FW0956 Weather Reports


time (UTC)temp
C
wind
direction
speed
KPH
gust
KPH
rain 1hr
cm
rain 24hr
cm
rain mn
cm
humidity
%
barometer
mb
20260504044641 5 258 0.0 0.0 0.00 0.00 0.00 64 1014.3
20260504043611 5 258 0.0 0.0 0.00 0.00 0.00 64 1014.2
20260504042618 5 258 0.0 1.6 0.00 0.00 0.00 63 1014.2
20260504041624 5 258 0.0 3.2 0.00 0.00 0.00 65 1014.2
20260504040621 5 232 0.0 0.0 0.00 0.00 0.00 64 1014.3
20260504035630 5 232 0.0 0.0 0.00 0.00 0.00 64 1014.1
20260504034606 5 232 0.0 0.0 0.00 0.00 0.00 64 1014.1
20260504033602 5 232 0.0 3.2 0.00 0.00 0.00 63 1014.1
20260504032628 5 232 0.0 3.2 0.00 0.00 0.00 64 1014.0
20260504031609 6 234 0.0 1.6 0.00 0.00 0.00 62 1014.0
20260504030609 6 234 0.0 1.6 0.00 0.00 0.00 62 1014.0
20260504025606 6 234 0.0 4.8 0.00 0.00 0.00 61 1014.1
20260504024611 6 234 0.0 3.2 0.00 0.00 0.00 61 1014.1
20260504023603 6 234 0.0 3.2 0.00 0.00 0.00 61 1014.1
20260504022615 6 234 0.0 3.2 0.00 0.00 0.00 61 1014.2
20260504021605 6 234 0.0 3.2 0.00 0.00 0.00 61 1014.2
20260504020603 6 234 0.0 1.6 0.00 0.00 0.00 60 1014.0
20260504015609 6 234 0.0 1.6 0.00 0.00 0.00 59 1013.8
20260504014646 6 234 0.0 0.0 0.00 0.00 0.00 59 1013.8
20260504013620 6 234 0.0 0.0 0.00 0.00 0.00 59 1013.8
20260504012618 7 234 0.0 0.0 0.00 0.00 0.00 56 1013.6
20260504011625 7 234 0.0 0.0 0.00 0.00 0.00 54 1013.6
20260504010629 8 234 0.0 0.0 0.00 0.00 0.00 51 1013.6
20260504004639 8 234 0.0 4.8 0.00 0.00 0.00 49 1013.5
20260504003638 9 230 0.0 1.6 0.00 0.00 0.00 48 1013.3
20260504002625 10 230 1.6 4.8 0.00 0.00 0.00 46 1013.2
20260504001609 10 236 3.2 11.3 0.00 0.00 0.00 45 1013.2
20260504000627 11 248 1.6 9.7 0.00 0.00 0.00 45 1013.2
20260503234613 11 240 6.4 19.3 0.00 0.00 0.00 41 1013.1
20260503233641 11 260 11.3 27.4 0.00 0.00 0.00 40 1013.1
20260503231601 12 258 4.8 25.7 0.00 0.00 0.00 40 1013.1
20260503230631 12 251 6.4 27.4 0.00 0.00 0.00 40 1013.0
20260503225632 12 219 9.7 30.6 0.00 0.00 0.00 40 1013.0
20260503224605 12 250 12.9 29.0 0.00 0.00 0.00 38 1013.0
20260503223625 12 257 3.2 27.4 0.00 0.00 0.00 38 1012.9
20260503221635 11 252 9.7 19.3 0.00 0.00 0.00 40 1013.1
20260503220638 12 250 4.8 20.9 0.00 0.00 0.00 39 1013.1
20260503215642 12 239 8.0 22.5 0.00 0.00 0.00 39 1013.2
20260503214627 12 255 9.7 22.5 0.00 0.00 0.00 38 1013.2
20260503213622 12 271 8.0 30.6 0.00 0.00 0.00 38 1013.1
20260503212635 12 268 9.7 19.3 0.00 0.00 0.00 39 1013.1
20260503211619 12 234 12.9 27.4 0.00 0.00 0.00 39 1013.1
20260503210612 12 254 12.9 25.7 0.00 0.00 0.00 37 1012.9
20260503205600 11 250 11.3 25.7 0.00 0.00 0.00 38 1013.1
20260503204611 11 272 8.0 19.3 0.00 0.00 0.00 40 1013.1
20260503201600 12 256 9.7 29.0 0.00 0.00 0.00 37 1013.3
20260503200626 11 236 11.3 29.0 0.00 0.00 0.00 37 1013.5
20260503194642 12 263 8.0 27.4 0.00 0.00 0.00 37 1013.4
20260503193640 11 236 11.3 27.4 0.00 0.00 0.00 40 1013.8
20260503192646 12 272 14.5 33.8 0.00 0.00 0.00 36 1014.0
20260503191605 11 302 8.0 22.5 0.00 0.00 0.00 37 1014.0
20260503190611 11 255 8.0 22.5 0.00 0.00 0.00 39 1014.2
20260503184607 10 283 4.8 40.2 0.00 0.00 0.00 40 1014.2
20260503182641 11 294 14.5 29.0 0.00 0.00 0.00 39 1014.4
20260503181646 11 254 14.5 25.7 0.00 0.00 0.00 42 1014.4
20260503180607 10 250 4.8 24.1 0.00 0.00 0.00 41 1014.6
20260503175607 10 305 11.3 25.7 0.00 0.00 0.00 41 1014.7
20260503174614 11 267 14.5 38.6 0.00 0.00 0.00 41 1014.7
20260503173620 10 270 11.3 25.7 0.00 0.00 0.00 41 1014.8
20260503172623 10 240 9.7 29.0 0.00 0.00 0.00 41 1014.9
20260503171612 10 294 17.7 35.4 0.00 0.00 0.00 39 1014.9
20260503170619 10 266 9.7 27.4 0.00 0.00 0.00 40 1014.9
20260503081622 1 247 3.2 11.3 0.00 0.00 0.00 70 1015.0
20260503080621 1 261 3.2 9.7 0.00 0.00 0.00 70 1014.9
20260503072641 1 292 8.0 12.9 0.00 0.00 0.00 69 1014.6
20260503071645 1 292 3.2 11.3 0.00 0.00 0.00 69 1014.6
20260503070626 1 315 3.2 6.4 0.00 0.00 0.00 69 1014.6
20260503054615 2 303 3.2 11.3 0.00 0.00 0.00 64 1014.8
20260503053612 2 226 1.6 8.0 0.00 0.00 0.00 64 1014.9
20260503052614 2 272 1.6 8.0 0.00 0.00 0.00 64 1014.9
20260503050645 3 264 1.6 8.0 0.00 0.03 0.00 63 1014.9